Regional Weather Roundup
Issued by NWS

Home | Current Version | Previous Version | Text Only | Print | Product List | Glossary On
Versions: 1 2 3 4 5 6 7 8 9 10 11 12 13 14 15 16 17 18 19 20 21 22 23 24 25 26 27 28 29 30 31 32 33 34 35 36 37 38 39 40 41 42 43 44 45 46 47 48 49 50
000
ASUS44 KOUN 272210
RWROK

WEATHER ROUNDUP FOR OKLAHOMA
NATIONAL WEATHER SERVICE NORMAN OK
500 PM CDT FRI MAY 27 2016

NOTE: "FAIR" INDICATES FEW OR NO CLOUDS BELOW 12,000 FEET WITH NO
      SIGNIFICANT WEATHER AND/OR OBSTRUCTIONS TO VISIBILITY.

OKZ001>007-009>012-014-015-017-272300-
NORTHWEST OKLAHOMA AND THE PANHANDLE

CITY           SKY/WX    TMP DP  RH WIND       PRES   REMARKS
GAGE           CLOUDY    78  49  35 W17       29.68F
GUYMON         CLOUDY    69  42  37 W17G26    29.69F
ENID/WOODRING  PTSUNNY   86  57  37 S12       29.61F
$$

OKZ016-021>023-033>039-044-045-272300-
SOUTHWEST OKLAHOMA

CITY           SKY/WX    TMP DP  RH WIND       PRES   REMARKS
LAWTON/REGL    PTSUNNY   88  51  28 SW10G22   29.62F
LAWTON/FT SILL PTSUNNY   87  58  37 W15G21    29.62F
CLINTON        SUNNY     84  49  29 W18       29.68S
HOBART         SUNNY     86  45  23 W18G31    29.66S
ALTUS AFB      SUNNY     86  44  23 W16G23    29.65S
$$

OKZ018>020-024>031-272300-
CENTRAL OKLAHOMA

CITY           SKY/WX    TMP DP  RH WIND       PRES   REMARKS
OKLAHOMA CITY  MOSUNNY   81  64  56 S14       29.67F
OKC/WILEY POST MOSUNNY   83  63  50 SW14G21   29.66F
OKC/TINKER AFB SUNNY     80  64  56 S13       29.67F
STILLWATER     MOSUNNY   81  63  54 SE16      29.65F
GUTHRIE        MOSUNNY   84  62  47 S13       29.65F
$$

OKZ008-013-054>072-272300-
NORTHEAST OKLAHOMA

CITY           SKY/WX    TMP DP  RH WIND       PRES   REMARKS
TULSA          CLOUDY    79  65  62 S15       29.67F
TULSA/JONES    PTSUNNY   80  63  55 S10       29.69F
PONCA CITY     MOSUNNY   82  61  48 S16G24    29.63S
BARTLESVILLE   CLOUDY    78  66  66 SE10      29.68F
MUSKOGEE       CLOUDY    77  64  64 S13       29.74R
$$

OKZ032-040>043-046>053-073>077-272300-
SOUTH CENTRAL/SOUTHEAST OKLAHOMA

CITY           SKY/WX    TMP DP  RH WIND       PRES   REMARKS
ARDMORE/DWNTWN CLOUDY    79  64  61 S7G16     29.70S
MCALESTER      CLOUDY    76  63  64 S7        29.74R
$$




USA.gov is the U.S. government's official web portal to all federal, state and local government web resources and services.